[[{"header":{"parameterUnit":"m.s-1","parameterCategory":2,"la1":30.2992,"la2":30.254,"lo1":-89.0895,"lo2":-89.0443,"dy":0.0025,"dx":0.0025,"nx":19,"ny":19,"refTime":"2026-05-21T09:00:00:Z","depth":"0","parameterNumber":2,"parameterNumberName":"U-component_of_CURRENTS"},"data":[0,0,0,-0.4416,-0.4418,-0.4472,-0.4472,-0.4394,-0.4393,0,0,0,0,0,0,0,0,0,0,0,-0.439,-0.439,-0.4416,-0.4418,-0.4472,-0.4472,-0.4394,-0.4393,0,0,0,0,0,0,0,0,0,0,0,-0.4389,-0.439,-0.4391,-0.4418,-0.4472,-0.4472,-0.4394,-0.4384,0,0,0,0,0,0,0,0,0,0,-0.4348,-0.4337,-0.439,-0.4391,-0.4419,-0.4472,-0.4472,-0.4385,-0.4385,-0.4335,0,-0.4362,0,-0.4387,-0.4387,-0.4387,0,0,0,-0.4393,-0.4337,-0.4375,-0.4391,-0.442,-0.4472,-0.444,-0.4386,-0.4385,-0.4334,-0.4361,-0.436,-0.4385,-0.4386,-0.4386,-0.4222,-0.4221,0,0,-0.4391,-0.4369,-0.4376,-0.4375,-0.4454,-0.4439,-0.4443,-0.4387,-0.4378,-0.4361,-0.4359,-0.4384,-0.4386,-0.4385,-0.4223,-0.4222,0,0,0,-0.4398,-0.4366,-0.4407,-0.4377,-0.4405,-0.4441,-0.4445,-0.438,-0.4401,-0.4358,-0.4383,-0.4385,-0.4384,-0.4225,-0.4223,-0.4118,0,0,0,-0.4395,-0.4374,-0.4406,-0.4389,-0.4408,-0.441,-0.4438,-0.4404,-0.44,-0.4384,-0.4385,-0.4383,-0.4226,-0.4224,-0.4123,-0.4003,0,0,0,-0.4384,-0.4371,-0.439,-0.4389,-0.4427,-0.4412,-0.4429,-0.4404,-0.4415,-0.4387,-0.4383,-0.4227,-0.4224,-0.4128,-0.4013,-0.389,0,0,0,-0.4341,-0.4355,-0.439,-0.4391,-0.4427,-0.4414,-0.443,-0.4438,-0.442,-0.4385,-0.4226,-0.4223,-0.413,-0.402,-0.3897,-0.3718,-0.3669,0,0,-0.4332,-0.4352,-0.435,-0.4383,-0.4307,-0.4403,-0.4303,-0.4321,-0.4349,-0.4232,-0.423,-0.4122,-0.4014,-0.3891,-0.3569,-0.3525,0,0,0,-0.4327,-0.4262,-0.4264,-0.4224,-0.4276,-0.4201,-0.4255,-0.4243,-0.418,-0.4331,-0.4098,-0.4031,-0.3958,-0.3866,-0.383,-0.3757,-0.4211,-0.4211,-0.4212,-0.4138,-0.4152,-0.4061,-0.4034,-0.4039,-0.4058,-0.4002,-0.3976,-0.408,-0.4036,-0.3933,-0.3737,-0.3639,-0.3609,-0.3537,-0.3957,-0.3956,-0.3956,-0.3956,-0.3917,-0.3801,-0.3828,-0.3741,-0.3748,-0.3695,-0.3692,-0.3749,-0.3634,-0.377,-0.3708,-0.3741,-0.3564,-0.3501,-0.3948,-0.395,-0.395,-0.3951,-0.3952,-0.3638,-0.3592,-0.358,-0.3471,-0.3408,-0.3473,-0.3369,-0.3427,-0.3473,-0.3412,-0.335,-0.335,-0.3303,-0.3434,-0.3433,-0.3432,-0.3431,-0.343,-0.3429,-0.3366,-0.3353,-0.3219,-0.3173,-0.3149,-0.3136,-0.3177,-0.3148,-0.3119,-0.3141,-0.3141,-0.3188,-0.3576,-0.3605,-0.3412,-0.3416,-0.3418,-0.3419,-0.342,-0.2937,-0.3003,-0.2806,-0.2758,-0.2735,-0.267,-0.2806,-0.2736,-0.2706,-0.263,-0.2696,-0.2987,-0.2981,-0.301,-0.3025,-0.2692,-0.2692,-0.2692,-0.2692,-0.2652,-0.267,-0.2431,-0.2354,-0.2333,-0.2432,-0.2237,-0.2256,-0.2292,-0.2245,-0.2358,-0.246,-0.2493,-0.2469,-0.251,-0.2519,-0.2066,-0.2065,-0.2065,-0.2344,-0.2354,-0.2115,-0.2129,-0.2165,-0.2167,-0.194,-0.1813,-0.1884,-0.2042,-0.2281,-0.2307,-0.2476,-0.2534,-0.2528,-0.2591,-0.2621,0,0]},{"header":{"parameterUnit":"m.s-1","parameterCategory":2,"la1":30.2992,"la2":30.254,"lo1":-89.0895,"lo2":-89.0443,"dy":0.0025,"dx":0.0025,"nx":19,"ny":19,"refTime":"2026-05-21T09:00:00:Z","depth":"0","parameterNumber":3,"parameterNumberName":"V-component_of_CURRENTS"},"data":[0,0,0,0.054,0.0544,0.0794,0.0795,0.1055,0.1056,0,0,0,0,0,0,0,0,0,0,0,0.0439,0.044,0.054,0.0545,0.0794,0.0795,0.1054,0.1056,0,0,0,0,0,0,0,0,0,0,0,0.0439,0.044,0.0441,0.0546,0.0794,0.0796,0.1054,0.0888,0,0,0,0,0,0,0,0,0,0,0.0656,0.0533,0.044,0.0441,0.0547,0.0793,0.0796,0.0881,0.0898,0.0915,0,0.0928,0,0.0991,0.107,0.107,0,0,0,0.0574,0.0518,0.061,0.0441,0.0549,0.0793,0.069,0.0891,0.091,0.0938,0.0933,0.0943,0.0995,0.1071,0.1072,0.1003,0.1001,0,0,0.0561,0.0471,0.0596,0.0621,0.0579,0.0682,0.0697,0.0904,0.0893,0.0934,0.095,0.0999,0.1072,0.1074,0.1005,0.1003,0,0,0,0.0501,0.046,0.0549,0.0609,0.0655,0.0688,0.0706,0.0884,0.0919,0.0954,0.1002,0.1073,0.1076,0.1008,0.1005,0.078,0,0,0,0.0494,0.0425,0.0542,0.049,0.0651,0.0774,0.068,0.0905,0.0931,0.1001,0.1073,0.1078,0.101,0.1006,0.0791,0.069,0,0,0,0.0434,0.0419,0.0443,0.0484,0.0584,0.0773,0.0821,0.0913,0.0959,0.1071,0.1078,0.1012,0.1007,0.0802,0.0707,0.0704,0,0,0,0.0344,0.0292,0.0439,0.0384,0.0581,0.0629,0.0821,0.0888,0.0963,0.1074,0.101,0.1005,0.0805,0.0718,0.0713,0.0877,0.0851,0,0,0.0218,0.0273,0.0239,0.0377,0.0336,0.0599,0.0547,0.0749,0.0883,0.095,0.095,0.0788,0.0708,0.0706,0.0569,0.0553,0,0,0,0.0159,0.0123,0.0135,0.0156,0.0267,0.0337,0.0547,0.062,0.0698,0.0901,0.0742,0.0698,0.0706,0.082,0.0805,0.1082,0.098,0.0981,0.0981,-0.0151,-0.0072,-0.015,-0.0057,-0.0016,0.0157,0.0208,0.0339,0.0509,0.0478,0.0481,0.0273,0.0384,0.0377,0.0655,0.0445,0.0444,0.0444,0.0443,-0.0387,-0.0424,-0.0348,-0.038,-0.0271,-0.0259,-0.01,0.0018,0.0083,0.0216,0.0238,0.0532,0.0349,0.0652,0.0428,0.043,0.0432,0.0434,0.0435,-0.0577,-0.058,-0.0573,-0.0597,-0.0604,-0.0467,-0.0437,-0.0305,-0.0132,-0.0145,0.0137,0.0144,0.0455,-0.0077,-0.0078,-0.0078,-0.0079,-0.0079,-0.0079,-0.0746,-0.0742,-0.0798,-0.0807,-0.0807,-0.0767,-0.0606,-0.0502,-0.0265,-0.0103,-0.0098,0.0399,0.0118,0.019,-0.0088,-0.0087,-0.0085,-0.0085,-0.0084,-0.0926,-0.0892,-0.0989,-0.1007,-0.1006,-0.0849,-0.0743,-0.0418,-0.0336,-0.0188,0.033,-0.0028,0.0093,0.011,0.0182,-0.0081,-0.0081,-0.0081,-0.0081,-0.1023,-0.1027,-0.1111,-0.1156,-0.1147,-0.0899,-0.0463,-0.0133,0.0226,0.0444,0.048,0.0644,0.0632,0.0795,0.0795,0.0887,0.0808,0.0809,0.081,-0.1107,-0.1121,-0.1186,-0.1215,-0.1191,-0.0825,-0.0148,0.05,0.0796,0.0869,0.0818,0.078,0.1043,0.1002,0.1283,0.1262,0.1421,0,0]}],[{"header":{"parameterUnit":"m.s-1","parameterCategory":2,"la1":30.2992,"la2":30.254,"lo1":-89.0895,"lo2":-89.0443,"dy":0.0025,"dx":0.0025,"nx":19,"ny":19,"refTime":"2026-05-21T09:00:00:Z","depth":"2","parameterNumber":2,"parameterNumberName":"U-component_of_CURRENTS"},"data":[0,0,0,-0.236,-0.2365,-0.2536,-0.2536,-0.2624,-0.2625,0,0,0,0,0,0,0,0,0,0,0,-0.2239,-0.224,-0.2359,-0.2366,-0.2536,-0.2536,-0.2624,-0.2625,0,0,0,0,0,0,0,0,0,0,0,-0.2238,-0.224,-0.2241,-0.2367,-0.2536,-0.2536,-0.2624,-0.2515,0,0,0,0,0,0,0,0,0,0,-0.236,-0.2325,-0.2239,-0.2241,-0.2368,-0.2536,-0.2536,-0.251,-0.2521,-0.2526,0,-0.255,0,-0.264,-0.2633,-0.2633,0,0,0,-0.2313,-0.2316,-0.2344,-0.2241,-0.237,-0.2536,-0.2444,-0.2517,-0.253,-0.254,-0.2552,-0.2559,-0.2641,-0.2634,-0.2634,-0.2738,-0.2738,0,0,-0.2304,-0.2287,-0.2336,-0.2352,-0.2411,-0.2439,-0.2451,-0.2526,-0.2545,-0.2553,-0.2563,-0.2642,-0.2635,-0.2635,-0.2738,-0.2738,0,0,0,-0.2312,-0.2281,-0.2309,-0.2345,-0.2415,-0.2446,-0.2458,-0.254,-0.2545,-0.2565,-0.2644,-0.2635,-0.2637,-0.2738,-0.2738,-0.2737,0,0,0,-0.2304,-0.229,-0.2304,-0.2299,-0.2415,-0.2514,-0.2471,-0.2536,-0.2552,-0.2643,-0.2635,-0.2638,-0.2737,-0.2738,-0.2736,-0.2753,0,0,0,-0.2232,-0.2286,-0.2298,-0.2297,-0.2401,-0.2515,-0.2523,-0.2541,-0.2602,-0.2633,-0.2638,-0.2737,-0.2738,-0.2736,-0.2752,-0.2735,0,0,0,-0.2216,-0.2269,-0.2297,-0.2386,-0.24,-0.2532,-0.2524,-0.2591,-0.2614,-0.2636,-0.2737,-0.2738,-0.2735,-0.2751,-0.2735,-0.2519,-0.2504,0,0,-0.2275,-0.2276,-0.2327,-0.2359,-0.2484,-0.2505,-0.2619,-0.2618,-0.2625,-0.2694,-0.2697,-0.2736,-0.2752,-0.2735,-0.2557,-0.2539,0,0,0,-0.2342,-0.2382,-0.2422,-0.2507,-0.2582,-0.2637,-0.2687,-0.2674,-0.2683,-0.266,-0.275,-0.2761,-0.2749,-0.2619,-0.2606,-0.2741,-0.2741,-0.2741,-0.2741,-0.2449,-0.2469,-0.2542,-0.2587,-0.266,-0.2725,-0.2737,-0.2733,-0.274,-0.272,-0.2768,-0.2772,-0.2633,-0.2621,-0.277,-0.277,-0.277,-0.277,-0.277,-0.2511,-0.2502,-0.2576,-0.2636,-0.2683,-0.276,-0.2803,-0.2777,-0.2788,-0.2778,-0.2765,-0.2636,-0.2606,-0.277,-0.277,-0.277,-0.277,-0.277,-0.277,-0.2477,-0.2455,-0.2512,-0.2572,-0.2652,-0.2743,-0.275,-0.2795,-0.2796,-0.2796,-0.2631,-0.2628,-0.2761,-0.2776,-0.2776,-0.2776,-0.2776,-0.2776,-0.2776,-0.2347,-0.2397,-0.2413,-0.2515,-0.2549,-0.2627,-0.2714,-0.2713,-0.2666,-0.2627,-0.2625,-0.2774,-0.2774,-0.2762,-0.2776,-0.2776,-0.2776,-0.2776,-0.2776,-0.217,-0.2241,-0.2235,-0.2273,-0.2376,-0.2359,-0.2514,-0.2455,-0.2467,-0.2393,-0.2513,-0.2519,-0.2497,-0.2505,-0.2487,-0.2429,-0.2429,-0.2429,-0.2429,-0.2041,-0.209,-0.2048,-0.2063,-0.2119,-0.2215,-0.2071,-0.2054,-0.2122,-0.2121,-0.2135,-0.2073,-0.2092,-0.2047,-0.2065,-0.2038,-0.1864,-0.1863,-0.1862,-0.1901,-0.1935,-0.1836,-0.1918,-0.1985,-0.1997,-0.1806,-0.1631,-0.1643,-0.1847,-0.2108,-0.2377,-0.232,-0.2338,-0.2298,-0.2315,-0.2285,0,0]},{"header":{"parameterUnit":"m.s-1","parameterCategory":2,"la1":30.2992,"la2":30.254,"lo1":-89.0895,"lo2":-89.0443,"dy":0.0025,"dx":0.0025,"nx":19,"ny":19,"refTime":"2026-05-21T09:00:00:Z","depth":"2","parameterNumber":3,"parameterNumberName":"V-component_of_CURRENTS"},"data":[0,0,0,-0.069,-0.0687,-0.0502,-0.0501,-0.0261,-0.0259,0,0,0,0,0,0,0,0,0,0,0,-0.0772,-0.0771,-0.0691,-0.0687,-0.0502,-0.0501,-0.0261,-0.0259,0,0,0,0,0,0,0,0,0,0,0,-0.0772,-0.0771,-0.077,-0.0686,-0.0502,-0.0501,-0.0262,-0.0399,0,0,0,0,0,0,0,0,0,0,-0.0578,-0.0655,-0.0771,-0.077,-0.0685,-0.0503,-0.0501,-0.0406,-0.0391,-0.0347,0,-0.0336,0,-0.0288,-0.0244,-0.0243,0,0,0,-0.0675,-0.0668,-0.0619,-0.077,-0.0683,-0.0503,-0.0582,-0.0397,-0.038,-0.0327,-0.0332,-0.0323,-0.0284,-0.0242,-0.0241,-0.0039,-0.0039,0,0,-0.0685,-0.0728,-0.0632,-0.061,-0.0657,-0.0588,-0.0577,-0.0387,-0.0378,-0.0331,-0.0316,-0.028,-0.0241,-0.0239,-0.004,-0.0039,0,0,0,-0.0722,-0.0736,-0.0691,-0.062,-0.0585,-0.0583,-0.057,-0.0386,-0.0372,-0.0314,-0.0277,-0.024,-0.0237,-0.004,-0.004,-0.0129,0,0,0,-0.0728,-0.0757,-0.0697,-0.0719,-0.0589,-0.0482,-0.0574,-0.0386,-0.0362,-0.0279,-0.0239,-0.0235,-0.0041,-0.004,-0.0127,-0.0167,0,0,0,-0.0776,-0.0761,-0.0748,-0.0722,-0.0645,-0.0484,-0.0458,-0.038,-0.034,-0.0243,-0.0234,-0.0041,-0.004,-0.0126,-0.0165,-0.0137,0,0,0,-0.0814,-0.0786,-0.075,-0.0704,-0.0647,-0.0531,-0.0459,-0.0382,-0.031,-0.0238,-0.0041,-0.004,-0.0126,-0.0163,-0.0136,-0.0054,-0.0051,0,0,-0.0796,-0.0786,-0.0757,-0.0719,-0.064,-0.0555,-0.0452,-0.035,-0.0267,-0.0102,-0.0097,-0.0128,-0.0164,-0.0137,0.0017,0.0017,0,0,0,-0.0761,-0.0748,-0.0716,-0.0663,-0.0577,-0.0498,-0.0383,-0.0324,-0.0204,-0.0217,-0.0077,-0.0096,-0.0077,-0.0023,-0.0023,-0.0034,-0.0034,-0.0034,-0.0034,-0.0804,-0.0753,-0.0717,-0.0645,-0.0576,-0.0454,-0.0383,-0.0271,-0.0201,-0.0168,-0.0132,-0.0122,-0.0065,-0.0063,-0.0087,-0.0087,-0.0088,-0.0088,-0.0088,-0.081,-0.08,-0.0742,-0.0691,-0.0612,-0.0527,-0.0364,-0.0316,-0.0183,-0.0149,-0.0125,-0.0074,-0.0068,-0.0094,-0.0093,-0.0092,-0.0091,-0.0091,-0.0091,-0.0864,-0.0854,-0.0824,-0.078,-0.072,-0.0597,-0.0514,-0.0393,-0.0261,-0.0237,-0.0119,-0.0116,-0.0185,-0.0214,-0.0214,-0.0214,-0.0214,-0.0214,-0.0214,-0.0944,-0.0909,-0.0927,-0.087,-0.0859,-0.0786,-0.0605,-0.0498,-0.0303,-0.0189,-0.0187,-0.0163,-0.0159,-0.0188,-0.0215,-0.0215,-0.0215,-0.0215,-0.0215,-0.0993,-0.1002,-0.1031,-0.1037,-0.0997,-0.0944,-0.0748,-0.0458,-0.0328,-0.0208,-0.0129,-0.013,-0.0082,-0.008,-0.0104,-0.0108,-0.0108,-0.0108,-0.0108,-0.1056,-0.1054,-0.1119,-0.1149,-0.1125,-0.1015,-0.0809,-0.0469,-0.0174,-0.0038,-0.0041,-0.0013,-0.0018,0.0035,0.0035,0.0014,0.004,0.004,0.0041,-0.1102,-0.1119,-0.1179,-0.1202,-0.118,-0.1073,-0.0872,-0.0455,-0.0035,0.0042,-0.0062,-0.0089,-0.0055,-0.006,0.0019,0.0019,-0.0014,0,0]}],[{"header":{"parameterUnit":"m.s-1","parameterCategory":2,"la1":30.2992,"la2":30.254,"lo1":-89.0895,"lo2":-89.0443,"dy":0.0025,"dx":0.0025,"nx":19,"ny":19,"refTime":"2026-05-21T09:00:00:Z","depth":"4","parameterNumber":2,"parameterNumberName":"U-component_of_CURRENTS"},"data":[0,0,0,-0.1427,-0.1431,-0.1636,-0.1637,-0.1809,-0.181,0,0,0,0,0,0,0,0,0,0,0,-0.1361,-0.1362,-0.1427,-0.1431,-0.1636,-0.1637,-0.1809,-0.181,0,0,0,0,0,0,0,0,0,0,0,-0.136,-0.1362,-0.1364,-0.1432,-0.1636,-0.1638,-0.1809,-0.1679,0,0,0,0,0,0,0,0,0,0,-0.1492,-0.1419,-0.1361,-0.1364,-0.1433,-0.1636,-0.1638,-0.1674,-0.1687,-0.1687,0,-0.1724,0,-0.1764,-0.1819,-0.1819,0,0,0,-0.1441,-0.1408,-0.1482,-0.1364,-0.1435,-0.1636,-0.1547,-0.1682,-0.1697,-0.1704,-0.1727,-0.1734,-0.1766,-0.182,-0.182,-0.1954,-0.1954,0,0,-0.143,-0.1379,-0.1472,-0.1492,-0.1494,-0.154,-0.1553,-0.1692,-0.1695,-0.1728,-0.1739,-0.1769,-0.1821,-0.1821,-0.1953,-0.1954,0,0,0,-0.1391,-0.1371,-0.1444,-0.1484,-0.1525,-0.1546,-0.1561,-0.169,-0.172,-0.1741,-0.1771,-0.1821,-0.1823,-0.1953,-0.1953,-0.2015,0,0,0,-0.1384,-0.1348,-0.1438,-0.1407,-0.1523,-0.1616,-0.1554,-0.1711,-0.1728,-0.177,-0.1821,-0.1824,-0.1952,-0.1953,-0.2012,-0.2069,0,0,0,-0.135,-0.1343,-0.1374,-0.1405,-0.1491,-0.1616,-0.1654,-0.1716,-0.1745,-0.1819,-0.1824,-0.1952,-0.1953,-0.2009,-0.2064,-0.2093,0,0,0,-0.1283,-0.133,-0.1373,-0.1443,-0.1489,-0.1629,-0.1654,-0.176,-0.1827,-0.1822,-0.1952,-0.1953,-0.2008,-0.2061,-0.209,-0.178,0,0,0,-0.1306,-0.1331,-0.1379,-0.1422,-0.1561,-0.1601,-0.1732,-0.1827,-0.184,-0.19,-0.1905,-0.2013,-0.2064,-0.2093,-0.1853,0,0,0,0,-0.1364,-0.1411,-0.1457,-0.1551,-0.1643,-0.176,-0.1835,-0.187,-0.1961,-0.1885,-0.202,-0.2051,-0.2067,-0.1876,-0.1959,-0.1959,-0.1959,-0.1959,-0.1959,-0.1344,-0.143,-0.1534,-0.1661,-0.1743,-0.1872,-0.1962,-0.2023,-0.2006,-0.2052,-0.2105,-0.218,-0.1981,-0.2092,-0.2093,-0.2093,-0.2093,-0.2093,-0.2094,-0.1425,-0.1494,-0.1612,-0.1753,-0.187,-0.1982,-0.2106,-0.2131,-0.222,-0.2179,-0.2189,-0.196,-0.21,-0.2099,-0.2098,-0.2097,-0.2096,-0.2096,-0.2096,-0.1415,-0.1459,-0.1581,-0.1782,-0.1943,-0.2073,-0.2174,-0.2266,-0.2297,-0.2337,-0.2096,-0.2232,-0.2221,-0.2315,-0.2316,-0.2316,-0.2317,-0.2317,-0.2317,-0.1344,-0.1466,-0.1597,-0.182,-0.1921,-0.207,-0.2229,-0.2249,-0.2304,-0.2161,-0.2347,-0.2255,-0.2248,-0.2235,-0.2323,-0.2322,-0.2321,-0.2321,-0.232,-0.1317,-0.1396,-0.1549,-0.1671,-0.1891,-0.1964,-0.2154,-0.2101,-0.2107,-0.2028,-0.2052,-0.2064,-0.2017,-0.2016,-0.1992,-0.2013,-0.2009,-0.2005,0,-0.1265,-0.1332,-0.1477,-0.1592,-0.1694,-0.1867,-0.1789,-0.1833,-0.1873,-0.1817,-0.211,-0.2141,-0.2145,-0.2094,-0.2088,-0.2059,0,0,0,-0.1245,-0.1294,-0.1333,-0.148,-0.1568,-0.1613,-0.1747,-0.1671,-0.1899,-0.1768,-0.1914,-0.1938,-0.2142,-0.2341,-0.2298,-0.2289,-0.2265,0,0]},{"header":{"parameterUnit":"m.s-1","parameterCategory":2,"la1":30.2992,"la2":30.254,"lo1":-89.0895,"lo2":-89.0443,"dy":0.0025,"dx":0.0025,"nx":19,"ny":19,"refTime":"2026-05-21T09:00:00:Z","depth":"4","parameterNumber":3,"parameterNumberName":"V-component_of_CURRENTS"},"data":[0,0,0,-0.0577,-0.0576,-0.0519,-0.0518,-0.0401,-0.04,0,0,0,0,0,0,0,0,0,0,0,-0.0598,-0.0598,-0.0577,-0.0576,-0.0519,-0.0518,-0.0401,-0.04,0,0,0,0,0,0,0,0,0,0,0,-0.0598,-0.0598,-0.0598,-0.0576,-0.0519,-0.0518,-0.0402,-0.0453,0,0,0,0,0,0,0,0,0,0,-0.0513,-0.0545,-0.0598,-0.0598,-0.0575,-0.0519,-0.0518,-0.0456,-0.045,-0.0418,0,-0.0418,0,-0.0409,-0.0392,-0.0392,0,0,0,-0.0565,-0.0551,-0.0534,-0.0598,-0.0575,-0.0519,-0.0541,-0.0453,-0.0446,-0.041,-0.0416,-0.0412,-0.0407,-0.0391,-0.0391,-0.0254,-0.0254,0,0,-0.0568,-0.0584,-0.054,-0.0531,-0.0571,-0.0543,-0.054,-0.0449,-0.0445,-0.0416,-0.041,-0.0405,-0.0391,-0.039,-0.0255,-0.0254,0,0,0,-0.0585,-0.0586,-0.0573,-0.0535,-0.053,-0.0542,-0.0538,-0.0449,-0.0445,-0.0408,-0.0403,-0.039,-0.0389,-0.0255,-0.0254,-0.0275,0,0,0,-0.0586,-0.0596,-0.0574,-0.0582,-0.0532,-0.0495,-0.054,-0.0452,-0.0441,-0.0404,-0.039,-0.0387,-0.0256,-0.0255,-0.0276,-0.029,0,0,0,-0.0599,-0.0597,-0.0594,-0.0583,-0.0563,-0.0497,-0.0487,-0.0449,-0.0438,-0.0392,-0.0387,-0.0257,-0.0255,-0.0276,-0.0291,-0.025,0,0,0,-0.0611,-0.0613,-0.0595,-0.059,-0.0564,-0.0524,-0.0488,-0.0456,-0.0422,-0.0389,-0.0256,-0.0255,-0.0277,-0.0291,-0.0251,-0.0286,0,0,0,-0.0621,-0.0615,-0.061,-0.0593,-0.0566,-0.053,-0.0474,-0.0421,-0.0381,-0.0283,-0.0279,-0.0275,-0.0291,-0.0251,-0.0198,0,0,0,0,-0.0617,-0.0616,-0.0603,-0.0585,-0.0549,-0.0494,-0.0444,-0.0393,-0.0308,-0.0354,-0.0239,-0.0248,-0.0222,-0.0243,-0.0247,-0.0248,-0.0248,-0.0248,-0.0248,-0.0663,-0.0634,-0.062,-0.0578,-0.0545,-0.0464,-0.0402,-0.0316,-0.0294,-0.0249,-0.0238,-0.0186,-0.0207,-0.0203,-0.0203,-0.0203,-0.0203,-0.0203,-0.0203,-0.0676,-0.0662,-0.0626,-0.0605,-0.0542,-0.0493,-0.0352,-0.0311,-0.0198,-0.0198,-0.0172,-0.0231,-0.0205,-0.0204,-0.0204,-0.0204,-0.0204,-0.0204,-0.0204,-0.0691,-0.0679,-0.0676,-0.0654,-0.0604,-0.0519,-0.0426,-0.0326,-0.0221,-0.0189,-0.0188,-0.018,-0.0208,-0.0177,-0.0177,-0.0177,-0.0177,-0.0177,-0.0177,-0.071,-0.07,-0.0734,-0.0703,-0.0704,-0.0638,-0.0478,-0.0381,-0.0263,-0.0203,-0.0197,-0.0176,-0.0177,-0.0204,-0.0175,-0.0175,-0.0175,-0.0175,-0.0175,-0.072,-0.0751,-0.0794,-0.0819,-0.0799,-0.0733,-0.0593,-0.0375,-0.0274,-0.0186,-0.0186,-0.0186,-0.0176,-0.0177,-0.0204,-0.0173,-0.0174,-0.0174,0,-0.0757,-0.0763,-0.0859,-0.0904,-0.0879,-0.078,-0.0613,-0.0465,-0.0305,-0.0321,-0.0299,-0.0312,-0.0307,-0.0309,-0.0309,-0.0348,0,0,0,-0.0793,-0.0818,-0.0893,-0.0937,-0.0914,-0.0703,-0.0559,-0.0486,-0.0344,-0.0215,-0.0182,-0.018,-0.021,-0.0169,-0.0152,-0.0154,-0.0195,0,0]}]]